カタログに戻る

STARLINK-34344

運用中通信SSO
NORAD 64159·PAYLOAD·🇺🇸 United States

打ち上げ May 27, 2025 から Vandenberg Space Force Base

Loading…

次のパス (今後24時間)

TLE

最新Source: CelesTrak SupGP

元期: Sep 15, 2026, 02:38 UTC

1 64159C 25112P   26258.11020833  .00042215  00000+0  13097-2 0  2580
2 64159  97.2839 305.2033 0001162  79.8441  95.6066 15.33437720    12

AllMySatでSTARLINK-34344をリアルタイム追跡

Download on the App Store